Location: Kernascl�den
(48.0062°N, 3.3198°W)
Time: 22:57:00
(UTC+00:00)

CZ-4 R/B - Pass Details

Date: 21 January 2021
Orbit: 580 x 589 km, 97.7° (Epoch: 04 March)

Event Time Altitude Azimuth Distance (km) Brightness Sun altitude
Rises 18:10:52 0° 156° (SSE) 2,797 7.8 -12.3°
Reaches altitude 10° 18:13:01 10° 153° (SSE) 1,903 7.0 -12.6°
Maximum altitude 18:17:05 63° 73° (ENE) 662 4.4 -13.3°
Drops below altitude 10° 18:21:13 10° 353° (N) 1,924 7.0 -14.0°
Sets 18:23:24 0° 350° (N) 2,831 7.9 -14.3°
